Weather in Kishcha

Russia / Republic of Dagestan     42°10′28″N   47°35′02″E
temp.,
°C
wind,
m/s
gust,
m/s
humid.,
%
clouds,
%
prec.,
mm/h
press.,
hPa
HPBL,
m
4 march, thu
thu400:00−6ssw239399 2.5 1024217
03:00−9w227687 2.7 102522
06:00−10wsw22781 0.0 102722
09:00−6w11661 0.0 1028249
12:00−3ene21691 0.0 1027608
15:00−3e228828 0.1 1025327
18:00−5s119592 0.1 102679
21:00−6wsw227251 0.1 102621
5 march, fri
fri500:00−5w225960 0.0 102322
03:00−5w225666 0.0 102221
06:00−6w2252100 0.0 102122
09:00−2wnw225073 0.0 1020141
12:00+1nnw224991 0.0 1018388
15:00+1nnw225372 0.0 1018346
18:00−2w22560 0.0 102021
21:00−3wsw22530 0.0 102122
6 march, sat
sat600:00−3wsw33410 0.0 102123
03:00−2wsw33330 0.0 102023
06:00−2wsw33290 0.0 102023
09:00+3sw11350 0.0 101953
12:00+7ese23310 0.0 1017389
15:00+6ese22450 0.0 1014327
18:00+1wsw12680 0.0 101422
21:000wsw334619 0.0 101427
7 march, sun
sun700:000wsw3336100 0.0 101235
03:00−1wsw3338100 0.0 101225
06:00−2wnw3357100 0.0 101583
09:00−3nne1187100 0.1 1019300
12:00−4ene3387100 0.8 1020384
15:00−5e3389100 1.9 1021405
18:00−8ese3393100 0.8 1023284
21:00−8se2293100 0.9 1025166
8 march, mon
mon800:00−9sse128966 0.0 102579
03:00−7sw017733 0.0 102423
06:00−8e01800 0.0 102422
09:00−5e21710 0.0 1023268
12:00−4e217841 0.0 1020387
15:00−4e229070 0.1 1019252
18:00−5ene1194100 0.3 1020158
21:00−5nnw1192100 0.7 1020126